DW2891 Weather Reports


Display with metric or nautical units.
time (UTC)temp
F
wind
direction
speed
MPH
gust
MPH
rain 1hr
in
rain 24hr
in
rain mn
in
humidity
%
barometer
mb
20260902035105 65 70 1.0 9.0 0.00 0.00 0.00 62 1005.9
20260902034605 65 8 2.0 5.0 0.00 0.00 0.00 62 1005.9
20260902034106 66 34 1.0 5.0 0.00 0.00 0.00 62 1006.0
20260902033605 66 339 3.0 15.0 0.00 0.00 0.00 62 1006.0
20260902032606 66 337 3.0 9.0 0.00 0.00 0.00 62 1005.9
20260902032105 66 350 2.0 15.0 0.00 0.00 0.00 62 1006.0
20260902031606 66 92 2.0 15.0 0.00 0.00 0.00 61 1006.0
20260902031105 66 63 0.0 9.0 0.00 0.00 0.00 62 1006.0
20260902030605 66 97 0.0 5.0 0.00 0.00 0.00 63 1006.0
20260902030105 66 92 1.0 14.0 0.00 0.00 0.00 62 1005.9
20260902025605 67 66 2.0 9.0 0.00 0.00 0.00 61 1005.8
20260902025105 67 160 2.0 9.0 0.00 0.00 0.00 60 1005.9
20260902024105 67 104 1.0 8.0 0.00 0.00 0.00 60 1005.8
20260902023605 67 107 3.0 10.0 0.00 0.00 0.00 60 1005.8
20260902022605 67 140 2.0 13.0 0.00 0.00 0.00 60 1005.9
20260902022105 67 75 1.0 6.0 0.00 0.00 0.00 60 1005.9
20260902021605 67 54 2.0 9.0 0.00 0.00 0.00 61 1006.1
20260902021105 67 355 1.0 8.0 0.00 0.00 0.00 61 1006.1
20260902020605 68 153 2.0 5.0 0.00 0.00 0.00 60 1006.1
20260902020105 68 32 1.0 8.0 0.00 0.00 0.00 60 1006.2
20260902015106 68 342 1.0 9.0 0.00 0.00 0.00 60 1006.1
20260902014605 69 355 0.0 2.0 0.00 0.00 0.00 60 1006.1
20260902014105 69 53 2.0 8.0 0.00 0.00 0.00 59 1006.2
20260902013605 69 83 0.0 1.0 0.00 0.00 0.00 61 1006.2
20260902013105 68 92 0.0 6.0 0.00 0.00 0.00 70 1006.2
20260902012606 68 112 0.0 0.0 0.00 0.00 0.00 72 1006.2
20260902011605 68 112 0.0 0.0 0.00 0.00 0.00 72 1006.1
20260902011106 68 112 0.0 0.0 0.00 0.00 0.00 73 1006.0
20260902010604 69 112 0.0 0.0 0.00 0.00 0.00 70 1005.9
20260902010105 69 112 0.0 0.0 0.00 0.00 0.00 69 1005.8
20260902005605 69 112 0.0 0.0 0.00 0.00 0.00 69 1005.9
20260902005106 69 111 0.0 0.0 0.00 0.00 0.00 69 1005.9
20260902004605 69 115 0.0 0.0 0.00 0.00 0.00 70 1005.8
20260902004106 70 115 0.0 0.0 0.00 0.00 0.00 68 1005.8
20260902003105 71 116 0.0 1.0 0.00 0.00 0.00 66 1005.8
20260902002605 71 117 0.0 1.0 0.00 0.00 0.00 64 1005.8
20260902001605 70 103 0.0 0.0 0.00 0.00 0.00 68 1005.8
20260902001105 71 103 0.0 1.0 0.00 0.00 0.00 68 1005.8
20260902000105 71 155 0.0 0.0 0.00 0.00 0.00 67 1005.9
20260901235605 70 155 0.0 0.0 0.00 0.00 0.00 67 1005.9
20260901235105 70 155 0.0 2.0 0.00 0.00 0.00 67 1005.9
20260901234105 70 128 0.0 0.0 0.00 0.00 0.00 70 1005.9
20260901233605 70 128 0.0 2.0 0.00 0.00 0.00 68 1005.9
20260901233106 70 107 0.0 0.0 0.00 0.00 0.00 69 1005.9
20260901232605 69 107 1.0 9.0 0.00 0.00 0.00 70 1005.9
20260901232105 69 65 0.0 0.0 0.00 0.00 0.00 70 1005.9
20260901231605 69 65 0.0 0.0 0.00 0.00 0.00 69 1005.8
20260901230605 70 54 0.0 0.0 0.00 0.00 0.00 67 1005.7
20260901230105 70 53 0.0 3.0 0.00 0.00 0.00 66 1005.8
20260901225105 71 83 0.0 2.0 0.00 0.00 0.00 66 1005.8
20260901224105 70 76 0.0 0.0 0.00 0.00 0.00 67 1005.9
20260901222605 71 76 0.0 0.0 0.00 0.00 0.00 66 1005.9
20260901222105 72 76 0.0 0.0 0.00 0.00 0.00 66 1006.0
20260901221605 71 76 2.0 5.0 0.00 0.00 0.00 66 1006.0
20260901221105 72 55 2.0 5.0 0.00 0.00 0.00 64 1006.0
20260901220106 71 50 0.0 0.0 0.00 0.00 0.00 67 1006.1
20260901215605 70 50 0.0 0.0 0.00 0.00 0.00 68 1006.1
20260901215105 70 50 0.0 1.0 0.00 0.00 0.00 68 1006.1
20260901214605 71 119 0.0 0.0 0.00 0.00 0.00 68 1006.1
20260901214105 71 120 0.0 0.0 0.00 0.00 0.00 67 1006.1
20260901213605 71 120 0.0 0.0 0.00 0.00 0.00 69 1006.1
20260901213105 71 128 0.0 1.0 0.00 0.00 0.00 67 1006.1
20260901212605 72 61 0.0 2.0 0.00 0.00 0.00 66 1006.1
20260901212105 73 49 1.0 2.0 0.00 0.00 0.00 64 1006.1
20260901211605 72 246 0.0 5.0 0.00 0.00 0.00 66 1006.1
20260901211105 73 251 0.0 5.0 0.00 0.00 0.00 64 1006.1
20260901210106 72 72 1.0 5.0 0.00 0.00 0.00 67 1006.2
20260901205105 70 118 3.0 8.0 0.00 0.00 0.00 71 1006.3
20260901204605 69 120 2.0 12.0 0.00 0.00 0.00 70 1006.3
20260901204105 70 272 0.0 2.0 0.00 0.00 0.00 71 1006.3
20260901203605 71 286 5.0 8.0 0.00 0.00 0.00 71 1006.3
20260901203105 70 328 0.0 8.0 0.00 0.00 0.00 72 1006.5
20260901202605 70 320 0.0 8.0 0.00 0.00 0.00 72 1006.6
20260901202105 71 301 1.0 8.0 0.00 0.00 0.00 71 1006.6
20260901201605 71 333 0.0 6.0 0.00 0.00 0.00 71 1006.6
20260901201104 71 237 0.0 2.0 0.00 0.00 0.00 71 1006.6
20260901200605 71 325 0.0 5.0 0.00 0.00 0.00 72 1006.6
20260901200105 70 5 0.0 1.0 0.00 0.00 0.00 73 1006.6
20260901195605 70 294 0.0 6.0 0.00 0.00 0.00 74 1006.7
20260901195105 69 32 0.0 0.0 0.00 0.00 0.00 73 1006.7
20260901194606 69 32 0.0 6.0 0.00 0.00 0.00 73 1006.7
20260901193605 70 51 0.0 6.0 0.00 0.00 0.00 72 1006.8
20260901192606 70 338 0.0 0.0 0.00 0.00 0.00 73 1007.0
20260901191605 69 338 0.0 3.0 0.00 0.00 0.00 74 1007.1
20260901190605 67 338 0.0 0.0 0.00 0.00 0.00 75 1007.1
20260901190106 68 338 0.0 0.0 0.00 0.00 0.00 74 1007.1
20260901185605 67 338 0.0 0.0 0.00 0.00 0.00 76 1007.2
20260901185105 68 338 0.0 1.0 0.00 0.00 0.00 76 1007.2
20260901184605 67 318 0.0 5.0 0.00 0.00 0.00 76 1007.2
20260901184105 67 318 0.0 0.0 0.00 0.00 0.00 78 1007.3
20260901183605 68 318 0.0 0.0 0.00 0.00 0.00 75 1007.2
20260901183105 68 318 0.0 1.0 0.00 0.00 0.00 77 1007.3
20260901182605 68 318 0.0 0.0 0.00 0.00 0.00 75 1007.3
20260901182105 67 318 0.0 0.0 0.00 0.00 0.00 77 1007.3
20260901181604 67 318 0.0 0.0 0.00 0.00 0.00 76 1007.3
20260901181105 68 318 0.0 0.0 0.00 0.00 0.00 75 1007.3
20260901180605 67 318 0.0 0.0 0.00 0.00 0.00 75 1007.3
20260901180104 67 318 0.0 2.0 0.00 0.00 0.00 75 1007.3
20260901175605 67 18 0.0 0.0 0.00 0.00 0.00 75 1007.3
20260901175105 67 18 0.0 1.0 0.00 0.00 0.00 75 1007.3
20260901174105 65 87 0.0 0.0 0.00 0.00 0.00 77 1007.4
20260901173605 65 87 0.0 0.0 0.00 0.00 0.00 77 1007.4
20260901173105 65 86 0.0 0.0 0.00 0.00 0.00 77 1007.4
20260901171605 66 45 1.0 8.0 0.00 0.00 0.00 75 1007.4
20260901171105 65 61 0.0 3.0 0.00 0.00 0.00 77 1007.4
20260901170605 65 342 0.0 0.0 0.00 0.00 0.00 78 1007.5
20260901170104 64 342 0.0 0.0 0.00 0.00 0.00 78 1007.5
20260901165605 64 342 0.0 0.0 0.00 0.00 0.00 78 1007.5
20260901165105 64 342 0.0 0.0 0.00 0.00 0.00 79 1007.6
20260901164605 64 342 0.0 1.0 0.00 0.00 0.00 78 1007.5
20260901164104 63 342 0.0 0.0 0.00 0.00 0.00 81 1007.7
20260901163105 62 61 0.0 0.0 0.00 0.00 0.00 83 1007.7
20260901162605 62 28 0.0 0.0 0.00 0.00 0.00 84 1007.7
20260901162105 62 293 0.0 0.0 0.00 0.00 0.00 85 1007.7
20260901161604 61 293 0.0 0.0 0.00 0.00 0.00 86 1007.7
20260901161105 61 293 1.0 2.0 0.00 0.00 0.00 87 1007.8
20260901160605 60 85 0.0 0.0 0.00 0.00 0.00 87 1007.8
20260901160105 60 85 0.0 0.0 0.00 0.00 0.00 89 1007.8
20260901155605 59 85 0.0 0.0 0.00 0.00 0.00 90 1007.8
20260901154105 58 85 0.0 0.0 0.00 0.00 0.00 91 1007.9
20260901153605 58 85 0.0 0.0 0.00 0.00 0.00 92 1007.8
20260901153106 58 85 0.0 0.0 0.00 0.00 0.00 92 1007.8
20260901152605 57 85 0.0 0.0 0.00 0.00 0.00 92 1007.9
20260901152105 57 85 0.0 0.0 0.00 0.00 0.00 92 1007.9
20260901151604 57 85 0.0 0.0 0.00 0.00 0.00 92 1007.8
20260901151104 57 85 0.0 0.0 0.00 0.00 0.00 92 1007.7
20260901150104 57 85 0.0 0.0 0.00 0.00 0.00 92 1007.7
20260901145605 56 85 0.0 0.0 0.00 0.00 0.00 92 1007.6
20260901145105 56 85 0.0 0.0 0.00 0.00 0.00 92 1007.6
20260901144604 56 85 0.0 0.0 0.00 0.00 0.00 92 1007.5
20260901144104 56 85 0.0 0.0 0.00 0.00 0.00 92 1007.6
20260901143605 56 85 0.0 0.0 0.00 0.00 0.00 91 1007.5
20260901143105 55 85 0.0 0.0 0.00 0.00 0.00 91 1007.5
20260901142605 55 85 0.0 0.0 0.00 0.00 0.00 91 1007.5
20260901142104 55 85 0.0 0.0 0.00 0.00 0.00 91 1007.4
20260901141605 55 85 0.0 0.0 0.00 0.00 0.00 91 1007.3
20260901141105 55 85 0.0 0.0 0.00 0.00 0.00 91 1007.4
20260901140604 55 85 0.0 0.0 0.00 0.00 0.00 91 1007.3
20260901140104 55 85 0.0 0.0 0.00 0.00 0.00 91 1007.4
20260901135605 55 85 0.0 0.0 0.00 0.00 0.00 91 1007.4
20260901135105 55 85 0.0 0.0 0.00 0.00 0.00 91 1007.3
20260901134605 55 85 0.0 0.0 0.00 0.00 0.00 91 1007.3
20260901134105 55 85 0.0 0.0 0.00 0.00 0.00 90 1007.3
20260901132605 55 85 0.0 0.0 0.00 0.00 0.00 90 1007.4
20260901132105 56 85 0.0 0.0 0.00 0.00 0.00 90 1007.4
20260901131604 56 85 0.0 0.0 0.00 0.00 0.00 89 1007.3
20260901130605 56 85 0.0 0.0 0.00 0.00 0.00 90 1007.3
20260901130105 56 85 0.0 0.0 0.00 0.00 0.00 90 1007.3
20260901125605 56 85 0.0 0.0 0.00 0.00 0.00 89 1007.4
20260901125106 56 85 0.0 0.0 0.00 0.00 0.00 89 1007.4
20260901124604 56 85 0.0 0.0 0.00 0.00 0.00 89 1007.4
20260901124104 56 85 0.0 0.0 0.00 0.00 0.00 89 1007.4
20260901123605 56 85 0.0 0.0 0.00 0.00 0.00 88 1007.4
20260901122605 56 85 0.0 0.0 0.00 0.00 0.00 88 1007.4
20260901122104 57 85 0.0 0.0 0.00 0.00 0.00 88 1007.5
20260901121605 57 85 0.0 0.0 0.00 0.00 0.00 87 1007.5
20260901121105 57 85 0.0 0.0 0.00 0.00 0.00 87 1007.5
20260901120604 57 85 0.0 0.0 0.00 0.00 0.00 86 1007.6
20260901115605 58 85 0.0 0.0 0.00 0.00 0.00 86 1007.6
20260901114604 58 85 0.0 0.0 0.00 0.00 0.00 85 1007.6
20260901114105 59 85 0.0 0.0 0.00 0.00 0.00 85 1007.6
20260901113605 59 85 0.0 0.0 0.00 0.00 0.00 84 1007.6
20260901113105 59 85 0.0 0.0 0.00 0.00 0.00 84 1007.6
20260901112605 59 85 0.0 0.0 0.00 0.00 0.00 84 1007.6
20260901112104 59 85 0.0 0.0 0.00 0.00 0.00 84 1007.6
20260901111104 59 85 0.0 0.0 0.00 0.00 0.00 84 1007.6
20260901110605 59 85 0.0 0.0 0.00 0.00 0.00 84 1007.5
20260901110105 59 85 0.0 0.0 0.00 0.00 0.00 84 1007.5
20260901105604 59 85 0.0 0.0 0.00 0.00 0.00 84 1007.5
20260901104605 59 85 0.0 0.0 0.00 0.00 0.00 84 1007.5
20260901103605 59 85 0.0 0.0 0.00 0.00 0.00 86 1007.6
20260901103105 59 85 0.0 0.0 0.00 0.00 0.00 86 1007.5
20260901101604 58 85 0.0 0.0 0.00 0.00 0.00 87 1007.6
20260901101104 58 85 0.0 0.0 0.00 0.00 0.00 88 1007.6
20260901100604 58 85 0.0 0.0 0.00 0.00 0.00 88 1007.7
20260901100105 58 85 0.0 0.0 0.00 0.00 0.00 87 1007.7
20260901095605 58 85 0.0 0.0 0.00 0.00 0.00 87 1007.7
20260901095104 58 85 0.0 0.0 0.00 0.00 0.00 87 1007.7
20260901094604 58 85 0.0 0.0 0.00 0.00 0.00 87 1007.6
20260901094105 58 85 0.0 0.0 0.00 0.00 0.00 86 1007.6
20260901093105 58 85 0.0 0.0 0.00 0.00 0.00 87 1007.6
20260901092604 58 85 0.0 0.0 0.00 0.00 0.00 87 1007.7
20260901092105 57 85 0.0 0.0 0.00 0.00 0.00 88 1007.7
20260901091605 57 85 0.0 0.0 0.00 0.00 0.00 88 1007.8
20260901091104 57 85 0.0 0.0 0.00 0.00 0.00 88 1007.9
20260901090604 57 85 0.0 0.0 0.00 0.00 0.00 88 1007.9
20260901090105 57 85 0.0 0.0 0.00 0.00 0.00 88 1007.9
20260901085605 57 85 0.0 0.0 0.00 0.00 0.00 88 1007.9
20260901085104 58 85 0.0 0.0 0.00 0.00 0.00 88 1007.9
20260901084604 58 85 0.0 0.0 0.00 0.00 0.00 87 1007.9
20260901084105 58 85 0.0 0.0 0.00 0.00 0.00 87 1007.9
20260901083105 58 85 0.0 0.0 0.00 0.00 0.00 86 1007.8
20260901082605 58 85 0.0 0.0 0.00 0.00 0.00 86 1007.9
20260901081604 59 85 0.0 0.0 0.00 0.00 0.00 86 1007.9
20260901081105 59 85 0.0 0.0 0.00 0.00 0.00 86 1007.9
20260901080605 59 85 0.0 0.0 0.00 0.00 0.00 85 1007.8
20260901080105 59 85 0.0 0.0 0.00 0.00 0.00 85 1007.9
20260901075604 59 85 0.0 0.0 0.00 0.00 0.00 86 1007.9
20260901075104 59 85 0.0 0.0 0.00 0.00 0.00 87 1007.9
20260901074105 59 85 0.0 0.0 0.00 0.00 0.00 86 1007.8
20260901073605 59 85 0.0 0.0 0.00 0.00 0.00 86 1007.9
20260901072605 58 85 0.0 0.0 0.00 0.00 0.00 86 1007.8
20260901071104 59 85 0.0 0.0 0.00 0.00 0.00 86 1007.9
20260901070605 59 85 0.0 0.0 0.00 0.00 0.00 86 1007.9
20260901070105 59 85 0.0 0.0 0.00 0.00 0.00 86 1007.9
20260901065604 59 85 0.0 0.0 0.00 0.00 0.00 86 1008.0
20260901065104 59 85 0.0 0.0 0.00 0.00 0.00 85 1008.1
20260901064605 59 85 0.0 0.0 0.00 0.00 0.00 85 1008.1
20260901064105 59 85 0.0 0.0 0.00 0.00 0.00 85 1008.1
20260901063605 59 85 0.0 0.0 0.00 0.00 0.00 85 1008.2
20260901062104 59 85 0.0 0.0 0.00 0.00 0.00 85 1008.1
20260901061604 59 85 0.0 0.0 0.00 0.00 0.00 84 1008.1
20260901061105 60 85 0.0 0.0 0.00 0.00 0.00 84 1008.0
20260901060604 60 85 0.0 0.0 0.00 0.00 0.00 84 1008.1
20260901060104 60 85 0.0 0.0 0.00 0.00 0.00 84 1008.1
20260901055104 60 85 0.0 0.0 0.00 0.00 0.00 83 1008.2
20260901054104 60 85 0.0 0.0 0.00 0.00 0.00 83 1008.1
20260901053604 60 85 0.0 0.0 0.00 0.00 0.00 82 1008.1
20260901051604 60 85 0.0 0.0 0.00 0.00 0.00 81 1008.1
20260901051105 61 85 0.0 0.0 0.00 0.00 0.00 81 1008.1
20260901050605 61 85 0.0 0.0 0.00 0.00 0.00 80 1008.2
20260901050104 61 85 0.0 0.0 0.00 0.00 0.00 80 1008.2
20260901045604 61 85 0.0 0.0 0.00 0.00 0.00 81 1008.3
20260901045104 61 85 0.0 0.0 0.00 0.00 0.00 80 1008.3
20260901044105 61 85 0.0 0.0 0.00 0.00 0.00 80 1008.4
20260901043604 61 85 0.0 0.0 0.00 0.00 0.00 80 1008.4
20260901043104 61 85 0.0 0.0 0.00 0.00 0.00 80 1008.4
20260901042604 62 85 0.0 0.0 0.00 0.00 0.00 80 1008.4
20260901042105 62 85 0.0 0.0 0.00 0.00 0.00 80 1008.5
20260901041605 62 85 0.0 0.0 0.00 0.00 0.00 80 1008.5
20260901041105 62 85 0.0 0.0 0.00 0.00 0.00 80 1008.6
20260901040604 62 85 0.0 0.0 0.00 0.00 0.00 80 1008.6